Index of /20260427/WXO-DD/model_caps/3km/12/008
Name Last modified Size Description
Parent Directory -
20260427T12Z_MSC_CAPS_AbsoluteVorticity_IsbL-0250_RLatLon0.03_PT008H.grib2 2026-04-27 18:08 1.1M
20260427T12Z_MSC_CAPS_AbsoluteVorticity_IsbL-0500_RLatLon0.03_PT008H.grib2 2026-04-27 18:08 1.4M
20260427T12Z_MSC_CAPS_AbsoluteVorticity_IsbL-0700_RLatLon0.03_PT008H.grib2 2026-04-27 18:08 1.0M
20260427T12Z_MSC_CAPS_AbsoluteVorticity_IsbL-0850_RLatLon0.03_PT008H.grib2 2026-04-27 18:08 1.2M
20260427T12Z_MSC_CAPS_AbsoluteVorticity_IsbL-1000_RLatLon0.03_PT008H.grib2 2026-04-27 18:08 1.3M
20260427T12Z_MSC_CAPS_AirDensity_AGL-120m_RLatLon0.03_PT008H.grib2 2026-04-27 18:08 1.4M
20260427T12Z_MSC_CAPS_AirDensity_AGL-40m_RLatLon0.03_PT008H.grib2 2026-04-27 18:08 1.5M
20260427T12Z_MSC_CAPS_AirDensity_AGL-80m_RLatLon0.03_PT008H.grib2 2026-04-27 18:08 1.4M
20260427T12Z_MSC_CAPS_AirTemp_AGL-120m_RLatLon0.03_PT008H.grib2 2026-04-27 18:08 1.8M
20260427T12Z_MSC_CAPS_AirTemp_AGL-2m_RLatLon0.03_PT008H.grib2 2026-04-27 18:08 2.1M
20260427T12Z_MSC_CAPS_AirTemp_AGL-40m_RLatLon0.03_PT008H.grib2 2026-04-27 18:08 1.9M
20260427T12Z_MSC_CAPS_AirTemp_AGL-80m_RLatLon0.03_PT008H.grib2 2026-04-27 18:08 1.8M
20260427T12Z_MSC_CAPS_AirTemp_IsbL-0050_RLatLon0.03_PT008H.grib2 2026-04-27 18:08 698K
20260427T12Z_MSC_CAPS_AirTemp_IsbL-0100_RLatLon0.03_PT008H.grib2 2026-04-27 18:08 953K
20260427T12Z_MSC_CAPS_AirTemp_IsbL-0150_RLatLon0.03_PT008H.grib2 2026-04-27 18:08 743K
20260427T12Z_MSC_CAPS_AirTemp_IsbL-0175_RLatLon0.03_PT008H.grib2 2026-04-27 18:08 764K
20260427T12Z_MSC_CAPS_AirTemp_IsbL-0200_RLatLon0.03_PT008H.grib2 2026-04-27 18:08 785K
20260427T12Z_MSC_CAPS_AirTemp_IsbL-0225_RLatLon0.03_PT008H.grib2 2026-04-27 18:08 791K
20260427T12Z_MSC_CAPS_AirTemp_IsbL-0250_RLatLon0.03_PT008H.grib2 2026-04-27 18:08 787K
20260427T12Z_MSC_CAPS_AirTemp_IsbL-0275_RLatLon0.03_PT008H.grib2 2026-04-27 18:08 785K
20260427T12Z_MSC_CAPS_AirTemp_IsbL-0300_RLatLon0.03_PT008H.grib2 2026-04-27 18:08 774K
20260427T12Z_MSC_CAPS_AirTemp_IsbL-0350_RLatLon0.03_PT008H.grib2 2026-04-27 18:08 747K
20260427T12Z_MSC_CAPS_AirTemp_IsbL-0400_RLatLon0.03_PT008H.grib2 2026-04-27 18:08 751K
20260427T12Z_MSC_CAPS_AirTemp_IsbL-0450_RLatLon0.03_PT008H.grib2 2026-04-27 18:08 761K
20260427T12Z_MSC_CAPS_AirTemp_IsbL-0500_RLatLon0.03_PT008H.grib2 2026-04-27 18:08 774K
20260427T12Z_MSC_CAPS_AirTemp_IsbL-0550_RLatLon0.03_PT008H.grib2 2026-04-27 18:08 790K
20260427T12Z_MSC_CAPS_AirTemp_IsbL-0600_RLatLon0.03_PT008H.grib2 2026-04-27 18:08 809K
20260427T12Z_MSC_CAPS_AirTemp_IsbL-0650_RLatLon0.03_PT008H.grib2 2026-04-27 18:08 1.0M
20260427T12Z_MSC_CAPS_AirTemp_IsbL-0700_RLatLon0.03_PT008H.grib2 2026-04-27 18:08 1.0M
20260427T12Z_MSC_CAPS_AirTemp_IsbL-0750_RLatLon0.03_PT008H.grib2 2026-04-27 18:08 1.0M
20260427T12Z_MSC_CAPS_AirTemp_IsbL-0800_RLatLon0.03_PT008H.grib2 2026-04-27 18:08 1.0M
20260427T12Z_MSC_CAPS_AirTemp_IsbL-0850_RLatLon0.03_PT008H.grib2 2026-04-27 18:08 1.1M
20260427T12Z_MSC_CAPS_AirTemp_IsbL-0875_RLatLon0.03_PT008H.grib2 2026-04-27 18:08 1.1M
20260427T12Z_MSC_CAPS_AirTemp_IsbL-0900_RLatLon0.03_PT008H.grib2 2026-04-27 18:08 1.0M
20260427T12Z_MSC_CAPS_AirTemp_IsbL-0925_RLatLon0.03_PT008H.grib2 2026-04-27 18:08 1.0M
20260427T12Z_MSC_CAPS_AirTemp_IsbL-0950_RLatLon0.03_PT008H.grib2 2026-04-27 18:08 1.1M
20260427T12Z_MSC_CAPS_AirTemp_IsbL-0970_RLatLon0.03_PT008H.grib2 2026-04-27 18:08 1.1M
20260427T12Z_MSC_CAPS_AirTemp_IsbL-0985_RLatLon0.03_PT008H.grib2 2026-04-27 18:08 1.0M
20260427T12Z_MSC_CAPS_AirTemp_IsbL-1000_RLatLon0.03_PT008H.grib2 2026-04-27 18:08 1.0M
20260427T12Z_MSC_CAPS_AirTemp_IsbL-1015_RLatLon0.03_PT008H.grib2 2026-04-27 18:08 1.1M
20260427T12Z_MSC_CAPS_Albedo_Sfc_RLatLon0.03_PT008H.grib2 2026-04-27 18:08 2.7M
20260427T12Z_MSC_CAPS_CAPE_Sfc_RLatLon0.03_PT008H.grib2 2026-04-27 18:08 45K
20260427T12Z_MSC_CAPS_CloudWater_EAtm_RLatLon0.03_PT008H.grib2 2026-04-27 18:08 1.4M
20260427T12Z_MSC_CAPS_ConvectivePrecip-Accum_Sfc_RLatLon0.03_PT008H.grib2 2026-04-27 18:08 2.8M
20260427T12Z_MSC_CAPS_DewPointDepression_AGL-120m_RLatLon0.03_PT008H.grib2 2026-04-27 18:08 2.1M
20260427T12Z_MSC_CAPS_DewPointDepression_AGL-2m_RLatLon0.03_PT008H.grib2 2026-04-27 18:08 2.2M
20260427T12Z_MSC_CAPS_DewPointDepression_AGL-40m_RLatLon0.03_PT008H.grib2 2026-04-27 18:08 2.1M
20260427T12Z_MSC_CAPS_DewPointDepression_AGL-80m_RLatLon0.03_PT008H.grib2 2026-04-27 18:08 2.1M
20260427T12Z_MSC_CAPS_DewPointDepression_IsbL-0050_RLatLon0.03_PT008H.grib2 2026-04-27 18:08 4.9K
20260427T12Z_MSC_CAPS_DewPointDepression_IsbL-0100_RLatLon0.03_PT008H.grib2 2026-04-27 18:08 107K
20260427T12Z_MSC_CAPS_DewPointDepression_IsbL-0150_RLatLon0.03_PT008H.grib2 2026-04-27 18:08 97K
20260427T12Z_MSC_CAPS_DewPointDepression_IsbL-0175_RLatLon0.03_PT008H.grib2 2026-04-27 18:08 198K
20260427T12Z_MSC_CAPS_DewPointDepression_IsbL-0200_RLatLon0.03_PT008H.grib2 2026-04-27 18:08 385K
20260427T12Z_MSC_CAPS_DewPointDepression_IsbL-0225_RLatLon0.03_PT008H.grib2 2026-04-27 18:08 641K
20260427T12Z_MSC_CAPS_DewPointDepression_IsbL-0250_RLatLon0.03_PT008H.grib2 2026-04-27 18:08 836K
20260427T12Z_MSC_CAPS_DewPointDepression_IsbL-0275_RLatLon0.03_PT008H.grib2 2026-04-27 18:08 972K
20260427T12Z_MSC_CAPS_DewPointDepression_IsbL-0300_RLatLon0.03_PT008H.grib2 2026-04-27 18:08 1.0M
20260427T12Z_MSC_CAPS_DewPointDepression_IsbL-0350_RLatLon0.03_PT008H.grib2 2026-04-27 18:08 1.0M
20260427T12Z_MSC_CAPS_DewPointDepression_IsbL-0400_RLatLon0.03_PT008H.grib2 2026-04-27 18:08 1.1M
20260427T12Z_MSC_CAPS_DewPointDepression_IsbL-0450_RLatLon0.03_PT008H.grib2 2026-04-27 18:08 1.1M
20260427T12Z_MSC_CAPS_DewPointDepression_IsbL-0500_RLatLon0.03_PT008H.grib2 2026-04-27 18:08 1.1M
20260427T12Z_MSC_CAPS_DewPointDepression_IsbL-0550_RLatLon0.03_PT008H.grib2 2026-04-27 18:08 1.1M
20260427T12Z_MSC_CAPS_DewPointDepression_IsbL-0600_RLatLon0.03_PT008H.grib2 2026-04-27 18:08 1.1M
20260427T12Z_MSC_CAPS_DewPointDepression_IsbL-0650_RLatLon0.03_PT008H.grib2 2026-04-27 18:08 1.2M
20260427T12Z_MSC_CAPS_DewPointDepression_IsbL-0700_RLatLon0.03_PT008H.grib2 2026-04-27 18:08 1.2M
20260427T12Z_MSC_CAPS_DewPointDepression_IsbL-0750_RLatLon0.03_PT008H.grib2 2026-04-27 18:08 1.2M
20260427T12Z_MSC_CAPS_DewPointDepression_IsbL-0800_RLatLon0.03_PT008H.grib2 2026-04-27 18:08 1.3M
20260427T12Z_MSC_CAPS_DewPointDepression_IsbL-0850_RLatLon0.03_PT008H.grib2 2026-04-27 18:08 1.3M
20260427T12Z_MSC_CAPS_DewPointDepression_IsbL-0875_RLatLon0.03_PT008H.grib2 2026-04-27 18:08 1.3M
20260427T12Z_MSC_CAPS_DewPointDepression_IsbL-0900_RLatLon0.03_PT008H.grib2 2026-04-27 18:08 1.3M
20260427T12Z_MSC_CAPS_DewPointDepression_IsbL-0925_RLatLon0.03_PT008H.grib2 2026-04-27 18:08 1.3M
20260427T12Z_MSC_CAPS_DewPointDepression_IsbL-0950_RLatLon0.03_PT008H.grib2 2026-04-27 18:08 1.3M
20260427T12Z_MSC_CAPS_DewPointDepression_IsbL-0970_RLatLon0.03_PT008H.grib2 2026-04-27 18:08 1.3M
20260427T12Z_MSC_CAPS_DewPointDepression_IsbL-0985_RLatLon0.03_PT008H.grib2 2026-04-27 18:08 1.3M
20260427T12Z_MSC_CAPS_DewPointDepression_IsbL-1000_RLatLon0.03_PT008H.grib2 2026-04-27 18:08 1.3M
20260427T12Z_MSC_CAPS_DewPointDepression_IsbL-1015_RLatLon0.03_PT008H.grib2 2026-04-27 18:08 1.3M
20260427T12Z_MSC_CAPS_DewPoint_AGL-120m_RLatLon0.03_PT008H.grib2 2026-04-27 18:08 3.6M
20260427T12Z_MSC_CAPS_DewPoint_AGL-2m_RLatLon0.03_PT008H.grib2 2026-04-27 18:08 2.2M
20260427T12Z_MSC_CAPS_DewPoint_AGL-40m_RLatLon0.03_PT008H.grib2 2026-04-27 18:08 3.7M
20260427T12Z_MSC_CAPS_DewPoint_AGL-80m_RLatLon0.03_PT008H.grib2 2026-04-27 18:08 3.7M
20260427T12Z_MSC_CAPS_DownwardLongwaveRadiationFlux-Accum_Sfc_RLatLon0.03_PT008H.grib2 2026-04-27 18:08 2.6M
20260427T12Z_MSC_CAPS_DownwardShortwaveRadiationFlux-Accum_NTAtm_RLatLon0.03_PT008H.grib2 2026-04-27 18:08 448K
20260427T12Z_MSC_CAPS_DownwardShortwaveRadiationFlux-Accum_Sfc_RLatLon0.03_PT008H.grib2 2026-04-27 18:08 2.3M
20260427T12Z_MSC_CAPS_FreezingRain-Accum_Sfc_RLatLon0.03_PT008H.grib2 2026-04-27 18:08 262K
20260427T12Z_MSC_CAPS_GeopotentialHeight_IsbL-0050_RLatLon0.03_PT008H.grib2 2026-04-27 18:08 634K
20260427T12Z_MSC_CAPS_GeopotentialHeight_IsbL-0100_RLatLon0.03_PT008H.grib2 2026-04-27 18:08 822K
20260427T12Z_MSC_CAPS_GeopotentialHeight_IsbL-0150_RLatLon0.03_PT008H.grib2 2026-04-27 18:08 615K
20260427T12Z_MSC_CAPS_GeopotentialHeight_IsbL-0175_RLatLon0.03_PT008H.grib2 2026-04-27 18:08 736K
20260427T12Z_MSC_CAPS_GeopotentialHeight_IsbL-0200_RLatLon0.03_PT008H.grib2 2026-04-27 18:08 739K
20260427T12Z_MSC_CAPS_GeopotentialHeight_IsbL-0225_RLatLon0.03_PT008H.grib2 2026-04-27 18:08 748K
20260427T12Z_MSC_CAPS_GeopotentialHeight_IsbL-0250_RLatLon0.03_PT008H.grib2 2026-04-27 18:08 758K
20260427T12Z_MSC_CAPS_GeopotentialHeight_IsbL-0275_RLatLon0.03_PT008H.grib2 2026-04-27 18:08 771K
20260427T12Z_MSC_CAPS_GeopotentialHeight_IsbL-0300_RLatLon0.03_PT008H.grib2 2026-04-27 18:08 778K
20260427T12Z_MSC_CAPS_GeopotentialHeight_IsbL-0350_RLatLon0.03_PT008H.grib2 2026-04-27 18:08 781K
20260427T12Z_MSC_CAPS_GeopotentialHeight_IsbL-0400_RLatLon0.03_PT008H.grib2 2026-04-27 18:08 775K
20260427T12Z_MSC_CAPS_GeopotentialHeight_IsbL-0450_RLatLon0.03_PT008H.grib2 2026-04-27 18:08 768K
20260427T12Z_MSC_CAPS_GeopotentialHeight_IsbL-0500_RLatLon0.03_PT008H.grib2 2026-04-27 18:08 760K
20260427T12Z_MSC_CAPS_GeopotentialHeight_IsbL-0550_RLatLon0.03_PT008H.grib2 2026-04-27 18:08 753K
20260427T12Z_MSC_CAPS_GeopotentialHeight_IsbL-0600_RLatLon0.03_PT008H.grib2 2026-04-27 18:08 745K
20260427T12Z_MSC_CAPS_GeopotentialHeight_IsbL-0650_RLatLon0.03_PT008H.grib2 2026-04-27 18:08 743K
20260427T12Z_MSC_CAPS_GeopotentialHeight_IsbL-0700_RLatLon0.03_PT008H.grib2 2026-04-27 18:08 632K
20260427T12Z_MSC_CAPS_GeopotentialHeight_IsbL-0750_RLatLon0.03_PT008H.grib2 2026-04-27 18:08 633K
20260427T12Z_MSC_CAPS_GeopotentialHeight_IsbL-0800_RLatLon0.03_PT008H.grib2 2026-04-27 18:08 635K
20260427T12Z_MSC_CAPS_GeopotentialHeight_IsbL-0850_RLatLon0.03_PT008H.grib2 2026-04-27 18:08 821K
20260427T12Z_MSC_CAPS_GeopotentialHeight_IsbL-0875_RLatLon0.03_PT008H.grib2 2026-04-27 18:08 830K
20260427T12Z_MSC_CAPS_GeopotentialHeight_IsbL-0900_RLatLon0.03_PT008H.grib2 2026-04-27 18:08 838K
20260427T12Z_MSC_CAPS_GeopotentialHeight_IsbL-0925_RLatLon0.03_PT008H.grib2 2026-04-27 18:08 831K
20260427T12Z_MSC_CAPS_GeopotentialHeight_IsbL-0950_RLatLon0.03_PT008H.grib2 2026-04-27 18:08 855K
20260427T12Z_MSC_CAPS_GeopotentialHeight_IsbL-0970_RLatLon0.03_PT008H.grib2 2026-04-27 18:08 867K
20260427T12Z_MSC_CAPS_GeopotentialHeight_IsbL-0985_RLatLon0.03_PT008H.grib2 2026-04-27 18:08 876K
20260427T12Z_MSC_CAPS_GeopotentialHeight_IsbL-1000_RLatLon0.03_PT008H.grib2 2026-04-27 18:08 885K
20260427T12Z_MSC_CAPS_GeopotentialHeight_IsbL-1015_RLatLon0.03_PT008H.grib2 2026-04-27 18:08 895K
20260427T12Z_MSC_CAPS_GeopotentialHeight_Sfc_RLatLon0.03_PT008H.grib2 2026-04-27 18:08 1.0M
20260427T12Z_MSC_CAPS_IcePellets-Accum_Sfc_RLatLon0.03_PT008H.grib2 2026-04-27 18:08 15K
20260427T12Z_MSC_CAPS_LatentHeatNetFlux_Sfc_RLatLon0.03_PT008H.grib2 2026-04-27 18:08 1.9M
20260427T12Z_MSC_CAPS_LiftedIndex-MU-VT_IsbL-0500_RLatLon0.03_PT008H.grib2 2026-04-27 18:08 3.3M
20260427T12Z_MSC_CAPS_MixedLayerThickness_Sfc_RLatLon0.03_PT008H.nc 2026-04-27 18:14 17M
20260427T12Z_MSC_CAPS_NetLongwaveRadiationFlux-Accum_Sfc_RLatLon0.03_PT008H.grib2 2026-04-27 18:08 2.9M
20260427T12Z_MSC_CAPS_NetShortwaveRadiationFlux-Accum_Sfc_RLatLon0.03_PT008H.grib2 2026-04-27 18:08 2.4M
20260427T12Z_MSC_CAPS_PlanetaryBoundaryLayerHeight_Sfc_RLatLon0.03_PT008H.grib2 2026-04-27 18:08 2.8M
20260427T12Z_MSC_CAPS_Precip-Accum_Sfc_RLatLon0.03_PT008H.grib2 2026-04-27 18:08 2.7M
20260427T12Z_MSC_CAPS_PrecipRate_Sfc_RLatLon0.03_PT008H.grib2 2026-04-27 18:08 440K
20260427T12Z_MSC_CAPS_PrecipType-Instant_Sfc_RLatLon0.03_PT008H.grib2 2026-04-27 18:08 1.5M
20260427T12Z_MSC_CAPS_Pressure_MSL_RLatLon0.03_PT008H.grib2 2026-04-27 18:08 773K
20260427T12Z_MSC_CAPS_Pressure_Sfc_RLatLon0.03_PT008H.grib2 2026-04-27 18:08 1.2M
20260427T12Z_MSC_CAPS_RadiativeTemp_Sfc_RLatLon0.03_PT008H.grib2 2026-04-27 18:08 2.1M
20260427T12Z_MSC_CAPS_Rain-Accum_Sfc_RLatLon0.03_PT008H.grib2 2026-04-27 18:08 1.2M
20260427T12Z_MSC_CAPS_RelativeHumidity_AGL-120m_RLatLon0.03_PT008H.grib2 2026-04-27 18:08 2.8M
20260427T12Z_MSC_CAPS_RelativeHumidity_AGL-2m_RLatLon0.03_PT008H.grib2 2026-04-27 18:08 2.9M
20260427T12Z_MSC_CAPS_RelativeHumidity_AGL-40m_RLatLon0.03_PT008H.grib2 2026-04-27 18:08 2.8M
20260427T12Z_MSC_CAPS_RelativeHumidity_AGL-80m_RLatLon0.03_PT008H.grib2 2026-04-27 18:08 2.8M
20260427T12Z_MSC_CAPS_RelativeHumidity_IsbL-0050_RLatLon0.03_PT008H.grib2 2026-04-27 18:08 1.0M
20260427T12Z_MSC_CAPS_RelativeHumidity_IsbL-0100_RLatLon0.03_PT008H.grib2 2026-04-27 18:08 889K
20260427T12Z_MSC_CAPS_RelativeHumidity_IsbL-0150_RLatLon0.03_PT008H.grib2 2026-04-27 18:08 498K
20260427T12Z_MSC_CAPS_RelativeHumidity_IsbL-0175_RLatLon0.03_PT008H.grib2 2026-04-27 18:08 498K
20260427T12Z_MSC_CAPS_RelativeHumidity_IsbL-0200_RLatLon0.03_PT008H.grib2 2026-04-27 18:08 648K
20260427T12Z_MSC_CAPS_RelativeHumidity_IsbL-0225_RLatLon0.03_PT008H.grib2 2026-04-27 18:08 853K
20260427T12Z_MSC_CAPS_RelativeHumidity_IsbL-0250_RLatLon0.03_PT008H.grib2 2026-04-27 18:08 1.1M
20260427T12Z_MSC_CAPS_RelativeHumidity_IsbL-0275_RLatLon0.03_PT008H.grib2 2026-04-27 18:08 1.4M
20260427T12Z_MSC_CAPS_RelativeHumidity_IsbL-0300_RLatLon0.03_PT008H.grib2 2026-04-27 18:08 1.7M
20260427T12Z_MSC_CAPS_RelativeHumidity_IsbL-0350_RLatLon0.03_PT008H.grib2 2026-04-27 18:08 1.9M
20260427T12Z_MSC_CAPS_RelativeHumidity_IsbL-0400_RLatLon0.03_PT008H.grib2 2026-04-27 18:08 2.0M
20260427T12Z_MSC_CAPS_RelativeHumidity_IsbL-0450_RLatLon0.03_PT008H.grib2 2026-04-27 18:08 1.9M
20260427T12Z_MSC_CAPS_RelativeHumidity_IsbL-0500_RLatLon0.03_PT008H.grib2 2026-04-27 18:08 1.8M
20260427T12Z_MSC_CAPS_RelativeHumidity_IsbL-0550_RLatLon0.03_PT008H.grib2 2026-04-27 18:08 2.0M
20260427T12Z_MSC_CAPS_RelativeHumidity_IsbL-0600_RLatLon0.03_PT008H.grib2 2026-04-27 18:08 2.0M
20260427T12Z_MSC_CAPS_RelativeHumidity_IsbL-0650_RLatLon0.03_PT008H.grib2 2026-04-27 18:08 2.0M
20260427T12Z_MSC_CAPS_RelativeHumidity_IsbL-0700_RLatLon0.03_PT008H.grib2 2026-04-27 18:08 2.2M
20260427T12Z_MSC_CAPS_RelativeHumidity_IsbL-0750_RLatLon0.03_PT008H.grib2 2026-04-27 18:08 2.3M
20260427T12Z_MSC_CAPS_RelativeHumidity_IsbL-0800_RLatLon0.03_PT008H.grib2 2026-04-27 18:08 2.3M
20260427T12Z_MSC_CAPS_RelativeHumidity_IsbL-0850_RLatLon0.03_PT008H.grib2 2026-04-27 18:08 2.4M
20260427T12Z_MSC_CAPS_RelativeHumidity_IsbL-0875_RLatLon0.03_PT008H.grib2 2026-04-27 18:08 2.5M
20260427T12Z_MSC_CAPS_RelativeHumidity_IsbL-0900_RLatLon0.03_PT008H.grib2 2026-04-27 18:08 2.5M
20260427T12Z_MSC_CAPS_RelativeHumidity_IsbL-0925_RLatLon0.03_PT008H.grib2 2026-04-27 18:08 2.6M
20260427T12Z_MSC_CAPS_RelativeHumidity_IsbL-0950_RLatLon0.03_PT008H.grib2 2026-04-27 18:08 2.6M
20260427T12Z_MSC_CAPS_RelativeHumidity_IsbL-0970_RLatLon0.03_PT008H.grib2 2026-04-27 18:08 2.7M
20260427T12Z_MSC_CAPS_RelativeHumidity_IsbL-0985_RLatLon0.03_PT008H.grib2 2026-04-27 18:08 2.8M
20260427T12Z_MSC_CAPS_RelativeHumidity_IsbL-1000_RLatLon0.03_PT008H.grib2 2026-04-27 18:08 2.8M
20260427T12Z_MSC_CAPS_RelativeHumidity_IsbL-1015_RLatLon0.03_PT008H.grib2 2026-04-27 18:08 2.9M
20260427T12Z_MSC_CAPS_Runoff-Accum_Sfc_RLatLon0.03_PT008H.grib2 2026-04-27 18:08 186K
20260427T12Z_MSC_CAPS_SeaIceAreaFraction_Sfc_RLatLon0.03_PT008H.nc 2026-04-27 18:14 15M
20260427T12Z_MSC_CAPS_SeaIceCompressiveStrength_Sfc_RLatLon0.03_PT008H.nc 2026-04-27 18:14 15M
20260427T12Z_MSC_CAPS_SeaIceDivergence_Sfc_RLatLon0.03_PT008H.nc 2026-04-27 18:14 15M
20260427T12Z_MSC_CAPS_SeaIceInternalPressure_Sfc_RLatLon0.03_PT008H.nc 2026-04-27 18:14 15M
20260427T12Z_MSC_CAPS_SeaIceShear_Sfc_RLatLon0.03_PT008H.nc 2026-04-27 18:14 15M
20260427T12Z_MSC_CAPS_SeaIceSnowTemp_Sfc_RLatLon0.03_PT008H.nc 2026-04-27 18:14 15M
20260427T12Z_MSC_CAPS_SeaIceSnowVolume_Sfc_RLatLon0.03_PT008H.nc 2026-04-27 18:14 15M
20260427T12Z_MSC_CAPS_SeaIceVelocityX_Sfc_RLatLon0.03_PT008H.nc 2026-04-27 18:14 15M
20260427T12Z_MSC_CAPS_SeaIceVelocityY_Sfc_RLatLon0.03_PT008H.nc 2026-04-27 18:14 15M
20260427T12Z_MSC_CAPS_SeaIceVolume_Sfc_RLatLon0.03_PT008H.nc 2026-04-27 18:14 15M
20260427T12Z_MSC_CAPS_SeaSurfaceHeight_Sfc_RLatLon0.03_PT008H.nc 2026-04-27 18:14 16M
20260427T12Z_MSC_CAPS_SeaWaterSalinity_DBS-0.5m_RLatLon0.03_PT008H.nc 2026-04-27 18:14 16M
20260427T12Z_MSC_CAPS_SeaWaterSalinity_DBS-all_RLatLon0.03_PT008H.nc 2026-04-27 18:14 107M
20260427T12Z_MSC_CAPS_SeaWaterTemp_DBS-0.5m_RLatLon0.03_PT008H.nc 2026-04-27 18:14 14M
20260427T12Z_MSC_CAPS_SeaWaterTemp_DBS-all_RLatLon0.03_PT008H.nc 2026-04-27 18:14 87M
20260427T12Z_MSC_CAPS_SeaWaterVelocityX_DBS-0.5m_RLatLon0.03_PT008H.nc 2026-04-27 18:14 17M
20260427T12Z_MSC_CAPS_SeaWaterVelocityX_DBS-all_RLatLon0.03_PT008H.nc 2026-04-27 18:14 207M
20260427T12Z_MSC_CAPS_SeaWaterVelocityY_DBS-0.5m_RLatLon0.03_PT008H.nc 2026-04-27 18:14 18M
20260427T12Z_MSC_CAPS_SeaWaterVelocityY_DBS-all_RLatLon0.03_PT008H.nc 2026-04-27 18:14 213M
20260427T12Z_MSC_CAPS_SensibleHeatNetFlux_Sfc_RLatLon0.03_PT008H.grib2 2026-04-27 18:08 2.3M
20260427T12Z_MSC_CAPS_ShowalterIndex_IsbL-0500_RLatLon0.03_PT008H.grib2 2026-04-27 18:08 4.3M
20260427T12Z_MSC_CAPS_Snow-Accum_Sfc_RLatLon0.03_PT008H.grib2 2026-04-27 18:08 2.2M
20260427T12Z_MSC_CAPS_SnowDensity_Sfc_RLatLon0.03_PT008H.grib2 2026-04-27 18:08 1.2M
20260427T12Z_MSC_CAPS_SnowDepthWaterEquivalent_Sfc_RLatLon0.03_PT008H.grib2 2026-04-27 18:08 711K
20260427T12Z_MSC_CAPS_SnowDepth_Sfc_RLatLon0.03_PT008H.grib2 2026-04-27 18:08 1.2M
20260427T12Z_MSC_CAPS_SoilTemp_DBS-0to10cm_RLatLon0.03_PT008H.grib2 2026-04-27 18:08 1.4M
20260427T12Z_MSC_CAPS_SoilTemp_Sfc_RLatLon0.03_PT008H.grib2 2026-04-27 18:08 1.9M
20260427T12Z_MSC_CAPS_SoilVolumetricIceContent_Sfc_RLatLon0.03_PT008H.grib2 2026-04-27 18:08 1.4M
20260427T12Z_MSC_CAPS_SoilVolumetricWaterContent_DBS-0to10cm_RLatLon0.03_PT008H.grib2 2026-04-27 18:08 1.1M
20260427T12Z_MSC_CAPS_SoilVolumetricWaterContent_DBS-0to1cm_RLatLon0.03_PT008H.grib2 2026-04-27 18:08 1.7M
20260427T12Z_MSC_CAPS_SpecificHumidity_AGL-120m_RLatLon0.03_PT008H.grib2 2026-04-27 18:08 1.7M
20260427T12Z_MSC_CAPS_SpecificHumidity_AGL-2m_RLatLon0.03_PT008H.grib2 2026-04-27 18:08 2.0M
20260427T12Z_MSC_CAPS_SpecificHumidity_AGL-40m_RLatLon0.03_PT008H.grib2 2026-04-27 18:08 1.8M
20260427T12Z_MSC_CAPS_SpecificHumidity_AGL-80m_RLatLon0.03_PT008H.grib2 2026-04-27 18:08 1.7M
20260427T12Z_MSC_CAPS_SpecificHumidity_IsbL-0050_RLatLon0.03_PT008H.grib2 2026-04-27 18:08 881K
20260427T12Z_MSC_CAPS_SpecificHumidity_IsbL-0100_RLatLon0.03_PT008H.grib2 2026-04-27 18:08 1.0M
20260427T12Z_MSC_CAPS_SpecificHumidity_IsbL-0150_RLatLon0.03_PT008H.grib2 2026-04-27 18:08 756K
20260427T12Z_MSC_CAPS_SpecificHumidity_IsbL-0175_RLatLon0.03_PT008H.grib2 2026-04-27 18:08 1.0M
20260427T12Z_MSC_CAPS_SpecificHumidity_IsbL-0200_RLatLon0.03_PT008H.grib2 2026-04-27 18:08 844K
20260427T12Z_MSC_CAPS_SpecificHumidity_IsbL-0225_RLatLon0.03_PT008H.grib2 2026-04-27 18:08 811K
20260427T12Z_MSC_CAPS_SpecificHumidity_IsbL-0250_RLatLon0.03_PT008H.grib2 2026-04-27 18:08 812K
20260427T12Z_MSC_CAPS_SpecificHumidity_IsbL-0275_RLatLon0.03_PT008H.grib2 2026-04-27 18:08 1.0M
20260427T12Z_MSC_CAPS_SpecificHumidity_IsbL-0300_RLatLon0.03_PT008H.grib2 2026-04-27 18:08 1.0M
20260427T12Z_MSC_CAPS_SpecificHumidity_IsbL-0350_RLatLon0.03_PT008H.grib2 2026-04-27 18:08 935K
20260427T12Z_MSC_CAPS_SpecificHumidity_IsbL-0400_RLatLon0.03_PT008H.grib2 2026-04-27 18:08 1.3M
20260427T12Z_MSC_CAPS_SpecificHumidity_IsbL-0450_RLatLon0.03_PT008H.grib2 2026-04-27 18:08 1.1M
20260427T12Z_MSC_CAPS_SpecificHumidity_IsbL-0500_RLatLon0.03_PT008H.grib2 2026-04-27 18:08 1.2M
20260427T12Z_MSC_CAPS_SpecificHumidity_IsbL-0550_RLatLon0.03_PT008H.grib2 2026-04-27 18:08 1.1M
20260427T12Z_MSC_CAPS_SpecificHumidity_IsbL-0600_RLatLon0.03_PT008H.grib2 2026-04-27 18:08 1.2M
20260427T12Z_MSC_CAPS_SpecificHumidity_IsbL-0650_RLatLon0.03_PT008H.grib2 2026-04-27 18:08 1.4M
20260427T12Z_MSC_CAPS_SpecificHumidity_IsbL-0700_RLatLon0.03_PT008H.grib2 2026-04-27 18:08 1.5M
20260427T12Z_MSC_CAPS_SpecificHumidity_IsbL-0750_RLatLon0.03_PT008H.grib2 2026-04-27 18:08 1.3M
20260427T12Z_MSC_CAPS_SpecificHumidity_IsbL-0800_RLatLon0.03_PT008H.grib2 2026-04-27 18:08 1.4M
20260427T12Z_MSC_CAPS_SpecificHumidity_IsbL-0850_RLatLon0.03_PT008H.grib2 2026-04-27 18:08 1.5M
20260427T12Z_MSC_CAPS_SpecificHumidity_IsbL-0875_RLatLon0.03_PT008H.grib2 2026-04-27 18:08 1.6M
20260427T12Z_MSC_CAPS_SpecificHumidity_IsbL-0900_RLatLon0.03_PT008H.grib2 2026-04-27 18:08 1.7M
20260427T12Z_MSC_CAPS_SpecificHumidity_IsbL-0925_RLatLon0.03_PT008H.grib2 2026-04-27 18:08 1.7M
20260427T12Z_MSC_CAPS_SpecificHumidity_IsbL-0950_RLatLon0.03_PT008H.grib2 2026-04-27 18:08 1.8M
20260427T12Z_MSC_CAPS_SpecificHumidity_IsbL-0970_RLatLon0.03_PT008H.grib2 2026-04-27 18:08 1.8M
20260427T12Z_MSC_CAPS_SpecificHumidity_IsbL-0985_RLatLon0.03_PT008H.grib2 2026-04-27 18:08 1.9M
20260427T12Z_MSC_CAPS_SpecificHumidity_IsbL-1000_RLatLon0.03_PT008H.grib2 2026-04-27 18:08 2.0M
20260427T12Z_MSC_CAPS_SpecificHumidity_IsbL-1015_RLatLon0.03_PT008H.grib2 2026-04-27 18:08 2.0M
20260427T12Z_MSC_CAPS_SpecificHumidity_Sfc_RLatLon0.03_PT008H.grib2 2026-04-27 18:08 2.5M
20260427T12Z_MSC_CAPS_StormRelativeHelicity_Sfc_RLatLon0.03_PT008H.grib2 2026-04-27 18:08 2.7M
20260427T12Z_MSC_CAPS_Thickness_IsbL-1000to0500_RLatLon0.03_PT008H.grib2 2026-04-27 18:08 434K
20260427T12Z_MSC_CAPS_TotalCloudCover_Sfc_RLatLon0.03_PT008H.grib2 2026-04-27 18:08 3.6M
20260427T12Z_MSC_CAPS_TurboclineDepth_Sfc_RLatLon0.03_PT008H.nc 2026-04-27 18:14 16M
20260427T12Z_MSC_CAPS_UpwardLongwaveRadiationFlux_NTAtm_RLatLon0.03_PT008H.grib2 2026-04-27 18:08 2.8M
20260427T12Z_MSC_CAPS_UpwardShortwaveRadiationFlux_NTAtm_RLatLon0.03_PT008H.grib2 2026-04-27 18:08 2.5M
20260427T12Z_MSC_CAPS_VerticalVelocity_IsbL-0250_RLatLon0.03_PT008H.grib2 2026-04-27 18:08 876K
20260427T12Z_MSC_CAPS_VerticalVelocity_IsbL-0500_RLatLon0.03_PT008H.grib2 2026-04-27 18:08 1.1M
20260427T12Z_MSC_CAPS_VerticalVelocity_IsbL-0700_RLatLon0.03_PT008H.grib2 2026-04-27 18:08 1.0M
20260427T12Z_MSC_CAPS_VerticalVelocity_IsbL-0850_RLatLon0.03_PT008H.grib2 2026-04-27 18:08 1.0M
20260427T12Z_MSC_CAPS_VerticalVelocity_IsbL-1000_RLatLon0.03_PT008H.grib2 2026-04-27 18:08 1.0M
20260427T12Z_MSC_CAPS_WindDir_AGL-10m_RLatLon0.03_PT008H.grib2 2026-04-27 18:08 2.4M
20260427T12Z_MSC_CAPS_WindDir_AGL-120m_RLatLon0.03_PT008H.grib2 2026-04-27 18:08 1.4M
20260427T12Z_MSC_CAPS_WindDir_AGL-40m_RLatLon0.03_PT008H.grib2 2026-04-27 18:08 1.4M
20260427T12Z_MSC_CAPS_WindDir_AGL-80m_RLatLon0.03_PT008H.grib2 2026-04-27 18:08 1.4M
20260427T12Z_MSC_CAPS_WindDir_IsbL-0050_RLatLon0.03_PT008H.grib2 2026-04-27 18:08 1.0M
20260427T12Z_MSC_CAPS_WindDir_IsbL-0100_RLatLon0.03_PT008H.grib2 2026-04-27 18:08 1.0M
20260427T12Z_MSC_CAPS_WindDir_IsbL-0150_RLatLon0.03_PT008H.grib2 2026-04-27 18:08 1.0M
20260427T12Z_MSC_CAPS_WindDir_IsbL-0175_RLatLon0.03_PT008H.grib2 2026-04-27 18:08 1.0M
20260427T12Z_MSC_CAPS_WindDir_IsbL-0200_RLatLon0.03_PT008H.grib2 2026-04-27 18:08 1.1M
20260427T12Z_MSC_CAPS_WindDir_IsbL-0225_RLatLon0.03_PT008H.grib2 2026-04-27 18:08 1.1M
20260427T12Z_MSC_CAPS_WindDir_IsbL-0250_RLatLon0.03_PT008H.grib2 2026-04-27 18:08 1.1M
20260427T12Z_MSC_CAPS_WindDir_IsbL-0275_RLatLon0.03_PT008H.grib2 2026-04-27 18:08 1.1M
20260427T12Z_MSC_CAPS_WindDir_IsbL-0300_RLatLon0.03_PT008H.grib2 2026-04-27 18:08 1.1M
20260427T12Z_MSC_CAPS_WindDir_IsbL-0350_RLatLon0.03_PT008H.grib2 2026-04-27 18:08 1.1M
20260427T12Z_MSC_CAPS_WindDir_IsbL-0400_RLatLon0.03_PT008H.grib2 2026-04-27 18:08 1.1M
20260427T12Z_MSC_CAPS_WindDir_IsbL-0450_RLatLon0.03_PT008H.grib2 2026-04-27 18:08 1.2M
20260427T12Z_MSC_CAPS_WindDir_IsbL-0500_RLatLon0.03_PT008H.grib2 2026-04-27 18:08 1.2M
20260427T12Z_MSC_CAPS_WindDir_IsbL-0550_RLatLon0.03_PT008H.grib2 2026-04-27 18:08 1.3M
20260427T12Z_MSC_CAPS_WindDir_IsbL-0600_RLatLon0.03_PT008H.grib2 2026-04-27 18:08 1.4M
20260427T12Z_MSC_CAPS_WindDir_IsbL-0650_RLatLon0.03_PT008H.grib2 2026-04-27 18:08 1.4M
20260427T12Z_MSC_CAPS_WindDir_IsbL-0700_RLatLon0.03_PT008H.grib2 2026-04-27 18:08 1.5M
20260427T12Z_MSC_CAPS_WindDir_IsbL-0750_RLatLon0.03_PT008H.grib2 2026-04-27 18:08 1.6M
20260427T12Z_MSC_CAPS_WindDir_IsbL-0800_RLatLon0.03_PT008H.grib2 2026-04-27 18:08 1.7M
20260427T12Z_MSC_CAPS_WindDir_IsbL-0850_RLatLon0.03_PT008H.grib2 2026-04-27 18:08 1.9M
20260427T12Z_MSC_CAPS_WindDir_IsbL-0875_RLatLon0.03_PT008H.grib2 2026-04-27 18:08 1.9M
20260427T12Z_MSC_CAPS_WindDir_IsbL-0900_RLatLon0.03_PT008H.grib2 2026-04-27 18:08 2.0M
20260427T12Z_MSC_CAPS_WindDir_IsbL-0925_RLatLon0.03_PT008H.grib2 2026-04-27 18:08 2.1M
20260427T12Z_MSC_CAPS_WindDir_IsbL-0950_RLatLon0.03_PT008H.grib2 2026-04-27 18:08 2.2M
20260427T12Z_MSC_CAPS_WindDir_IsbL-0970_RLatLon0.03_PT008H.grib2 2026-04-27 18:08 2.2M
20260427T12Z_MSC_CAPS_WindDir_IsbL-0985_RLatLon0.03_PT008H.grib2 2026-04-27 18:08 2.2M
20260427T12Z_MSC_CAPS_WindDir_IsbL-1000_RLatLon0.03_PT008H.grib2 2026-04-27 18:08 2.3M
20260427T12Z_MSC_CAPS_WindDir_IsbL-1015_RLatLon0.03_PT008H.grib2 2026-04-27 18:08 2.4M
20260427T12Z_MSC_CAPS_WindGust-Max_AGL-10m_RLatLon0.03_PT008H.grib2 2026-04-27 18:08 2.3M
20260427T12Z_MSC_CAPS_WindGust-Min_AGL-10m_RLatLon0.03_PT008H.grib2 2026-04-27 18:08 2.3M
20260427T12Z_MSC_CAPS_WindGust_AGL-10m_RLatLon0.03_PT008H.grib2 2026-04-27 18:08 2.4M
20260427T12Z_MSC_CAPS_WindSpeed_AGL-10m_RLatLon0.03_PT008H.grib2 2026-04-27 18:08 2.1M
20260427T12Z_MSC_CAPS_WindSpeed_AGL-120m_RLatLon0.03_PT008H.grib2 2026-04-27 18:08 1.2M
20260427T12Z_MSC_CAPS_WindSpeed_AGL-40m_RLatLon0.03_PT008H.grib2 2026-04-27 18:08 1.3M
20260427T12Z_MSC_CAPS_WindSpeed_AGL-80m_RLatLon0.03_PT008H.grib2 2026-04-27 18:08 1.2M
20260427T12Z_MSC_CAPS_WindSpeed_IsbL-0050_RLatLon0.03_PT008H.grib2 2026-04-27 18:08 935K
20260427T12Z_MSC_CAPS_WindSpeed_IsbL-0100_RLatLon0.03_PT008H.grib2 2026-04-27 18:08 967K
20260427T12Z_MSC_CAPS_WindSpeed_IsbL-0150_RLatLon0.03_PT008H.grib2 2026-04-27 18:08 1.0M
20260427T12Z_MSC_CAPS_WindSpeed_IsbL-0175_RLatLon0.03_PT008H.grib2 2026-04-27 18:08 1.1M
20260427T12Z_MSC_CAPS_WindSpeed_IsbL-0200_RLatLon0.03_PT008H.grib2 2026-04-27 18:08 1.2M
20260427T12Z_MSC_CAPS_WindSpeed_IsbL-0225_RLatLon0.03_PT008H.grib2 2026-04-27 18:08 947K
20260427T12Z_MSC_CAPS_WindSpeed_IsbL-0250_RLatLon0.03_PT008H.grib2 2026-04-27 18:08 967K
20260427T12Z_MSC_CAPS_WindSpeed_IsbL-0275_RLatLon0.03_PT008H.grib2 2026-04-27 18:08 1.0M
20260427T12Z_MSC_CAPS_WindSpeed_IsbL-0300_RLatLon0.03_PT008H.grib2 2026-04-27 18:08 1.0M
20260427T12Z_MSC_CAPS_WindSpeed_IsbL-0350_RLatLon0.03_PT008H.grib2 2026-04-27 18:08 1.0M
20260427T12Z_MSC_CAPS_WindSpeed_IsbL-0400_RLatLon0.03_PT008H.grib2 2026-04-27 18:08 1.0M
20260427T12Z_MSC_CAPS_WindSpeed_IsbL-0450_RLatLon0.03_PT008H.grib2 2026-04-27 18:08 1.0M
20260427T12Z_MSC_CAPS_WindSpeed_IsbL-0500_RLatLon0.03_PT008H.grib2 2026-04-27 18:08 1.0M
20260427T12Z_MSC_CAPS_WindSpeed_IsbL-0550_RLatLon0.03_PT008H.grib2 2026-04-27 18:08 1.0M
20260427T12Z_MSC_CAPS_WindSpeed_IsbL-0600_RLatLon0.03_PT008H.grib2 2026-04-27 18:08 1.4M
20260427T12Z_MSC_CAPS_WindSpeed_IsbL-0650_RLatLon0.03_PT008H.grib2 2026-04-27 18:08 1.4M
20260427T12Z_MSC_CAPS_WindSpeed_IsbL-0700_RLatLon0.03_PT008H.grib2 2026-04-27 18:08 1.5M
20260427T12Z_MSC_CAPS_WindSpeed_IsbL-0750_RLatLon0.03_PT008H.grib2 2026-04-27 18:08 1.6M
20260427T12Z_MSC_CAPS_WindSpeed_IsbL-0800_RLatLon0.03_PT008H.grib2 2026-04-27 18:08 1.7M
20260427T12Z_MSC_CAPS_WindSpeed_IsbL-0850_RLatLon0.03_PT008H.grib2 2026-04-27 18:08 1.8M
20260427T12Z_MSC_CAPS_WindSpeed_IsbL-0875_RLatLon0.03_PT008H.grib2 2026-04-27 18:08 1.7M
20260427T12Z_MSC_CAPS_WindSpeed_IsbL-0900_RLatLon0.03_PT008H.grib2 2026-04-27 18:08 1.8M
20260427T12Z_MSC_CAPS_WindSpeed_IsbL-0925_RLatLon0.03_PT008H.grib2 2026-04-27 18:08 1.8M
20260427T12Z_MSC_CAPS_WindSpeed_IsbL-0950_RLatLon0.03_PT008H.grib2 2026-04-27 18:08 1.9M
20260427T12Z_MSC_CAPS_WindSpeed_IsbL-0970_RLatLon0.03_PT008H.grib2 2026-04-27 18:08 2.0M
20260427T12Z_MSC_CAPS_WindSpeed_IsbL-0985_RLatLon0.03_PT008H.grib2 2026-04-27 18:08 2.0M
20260427T12Z_MSC_CAPS_WindSpeed_IsbL-1000_RLatLon0.03_PT008H.grib2 2026-04-27 18:08 2.0M
20260427T12Z_MSC_CAPS_WindSpeed_IsbL-1015_RLatLon0.03_PT008H.grib2 2026-04-27 18:08 2.0M
20260427T12Z_MSC_CAPS_WindU_AGL-10m_RLatLon0.03_PT008H.grib2 2026-04-27 18:08 1.5M
20260427T12Z_MSC_CAPS_WindU_AGL-120m_RLatLon0.03_PT008H.grib2 2026-04-27 18:08 1.0M
20260427T12Z_MSC_CAPS_WindU_AGL-40m_RLatLon0.03_PT008H.grib2 2026-04-27 18:08 935K
20260427T12Z_MSC_CAPS_WindU_AGL-80m_RLatLon0.03_PT008H.grib2 2026-04-27 18:08 1.0M
20260427T12Z_MSC_CAPS_WindU_IsbL-0050_RLatLon0.03_PT008H.grib2 2026-04-27 18:08 765K
20260427T12Z_MSC_CAPS_WindU_IsbL-0100_RLatLon0.03_PT008H.grib2 2026-04-27 18:08 962K
20260427T12Z_MSC_CAPS_WindU_IsbL-0150_RLatLon0.03_PT008H.grib2 2026-04-27 18:08 917K
20260427T12Z_MSC_CAPS_WindU_IsbL-0175_RLatLon0.03_PT008H.grib2 2026-04-27 18:08 723K
20260427T12Z_MSC_CAPS_WindU_IsbL-0200_RLatLon0.03_PT008H.grib2 2026-04-27 18:08 866K
20260427T12Z_MSC_CAPS_WindU_IsbL-0225_RLatLon0.03_PT008H.grib2 2026-04-27 18:08 887K
20260427T12Z_MSC_CAPS_WindU_IsbL-0250_RLatLon0.03_PT008H.grib2 2026-04-27 18:08 912K
20260427T12Z_MSC_CAPS_WindU_IsbL-0275_RLatLon0.03_PT008H.grib2 2026-04-27 18:08 920K
20260427T12Z_MSC_CAPS_WindU_IsbL-0300_RLatLon0.03_PT008H.grib2 2026-04-27 18:08 930K
20260427T12Z_MSC_CAPS_WindU_IsbL-0350_RLatLon0.03_PT008H.grib2 2026-04-27 18:08 943K
20260427T12Z_MSC_CAPS_WindU_IsbL-0400_RLatLon0.03_PT008H.grib2 2026-04-27 18:08 948K
20260427T12Z_MSC_CAPS_WindU_IsbL-0450_RLatLon0.03_PT008H.grib2 2026-04-27 18:08 959K
20260427T12Z_MSC_CAPS_WindU_IsbL-0500_RLatLon0.03_PT008H.grib2 2026-04-27 18:08 1.0M
20260427T12Z_MSC_CAPS_WindU_IsbL-0550_RLatLon0.03_PT008H.grib2 2026-04-27 18:08 1.0M
20260427T12Z_MSC_CAPS_WindU_IsbL-0600_RLatLon0.03_PT008H.grib2 2026-04-27 18:08 1.0M
20260427T12Z_MSC_CAPS_WindU_IsbL-0650_RLatLon0.03_PT008H.grib2 2026-04-27 18:08 1.0M
20260427T12Z_MSC_CAPS_WindU_IsbL-0700_RLatLon0.03_PT008H.grib2 2026-04-27 18:08 1.1M
20260427T12Z_MSC_CAPS_WindU_IsbL-0750_RLatLon0.03_PT008H.grib2 2026-04-27 18:08 1.0M
20260427T12Z_MSC_CAPS_WindU_IsbL-0800_RLatLon0.03_PT008H.grib2 2026-04-27 18:08 1.2M
20260427T12Z_MSC_CAPS_WindU_IsbL-0850_RLatLon0.03_PT008H.grib2 2026-04-27 18:08 1.3M
20260427T12Z_MSC_CAPS_WindU_IsbL-0875_RLatLon0.03_PT008H.grib2 2026-04-27 18:08 1.3M
20260427T12Z_MSC_CAPS_WindU_IsbL-0900_RLatLon0.03_PT008H.grib2 2026-04-27 18:08 1.3M
20260427T12Z_MSC_CAPS_WindU_IsbL-0925_RLatLon0.03_PT008H.grib2 2026-04-27 18:08 1.4M
20260427T12Z_MSC_CAPS_WindU_IsbL-0950_RLatLon0.03_PT008H.grib2 2026-04-27 18:08 1.4M
20260427T12Z_MSC_CAPS_WindU_IsbL-0970_RLatLon0.03_PT008H.grib2 2026-04-27 18:08 1.4M
20260427T12Z_MSC_CAPS_WindU_IsbL-0985_RLatLon0.03_PT008H.grib2 2026-04-27 18:08 1.4M
20260427T12Z_MSC_CAPS_WindU_IsbL-1000_RLatLon0.03_PT008H.grib2 2026-04-27 18:08 1.4M
20260427T12Z_MSC_CAPS_WindU_IsbL-1015_RLatLon0.03_PT008H.grib2 2026-04-27 18:08 1.5M
20260427T12Z_MSC_CAPS_WindV_AGL-10m_RLatLon0.03_PT008H.grib2 2026-04-27 18:08 1.5M
20260427T12Z_MSC_CAPS_WindV_AGL-120m_RLatLon0.03_PT008H.grib2 2026-04-27 18:08 905K
20260427T12Z_MSC_CAPS_WindV_AGL-40m_RLatLon0.03_PT008H.grib2 2026-04-27 18:08 937K
20260427T12Z_MSC_CAPS_WindV_AGL-80m_RLatLon0.03_PT008H.grib2 2026-04-27 18:08 907K
20260427T12Z_MSC_CAPS_WindV_IsbL-0050_RLatLon0.03_PT008H.grib2 2026-04-27 18:08 949K
20260427T12Z_MSC_CAPS_WindV_IsbL-0100_RLatLon0.03_PT008H.grib2 2026-04-27 18:08 796K
20260427T12Z_MSC_CAPS_WindV_IsbL-0150_RLatLon0.03_PT008H.grib2 2026-04-27 18:08 915K
20260427T12Z_MSC_CAPS_WindV_IsbL-0175_RLatLon0.03_PT008H.grib2 2026-04-27 18:08 722K
20260427T12Z_MSC_CAPS_WindV_IsbL-0200_RLatLon0.03_PT008H.grib2 2026-04-27 18:08 736K
20260427T12Z_MSC_CAPS_WindV_IsbL-0225_RLatLon0.03_PT008H.grib2 2026-04-27 18:08 880K
20260427T12Z_MSC_CAPS_WindV_IsbL-0250_RLatLon0.03_PT008H.grib2 2026-04-27 18:08 908K
20260427T12Z_MSC_CAPS_WindV_IsbL-0275_RLatLon0.03_PT008H.grib2 2026-04-27 18:08 917K
20260427T12Z_MSC_CAPS_WindV_IsbL-0300_RLatLon0.03_PT008H.grib2 2026-04-27 18:08 928K
20260427T12Z_MSC_CAPS_WindV_IsbL-0350_RLatLon0.03_PT008H.grib2 2026-04-27 18:08 943K
20260427T12Z_MSC_CAPS_WindV_IsbL-0400_RLatLon0.03_PT008H.grib2 2026-04-27 18:08 948K
20260427T12Z_MSC_CAPS_WindV_IsbL-0450_RLatLon0.03_PT008H.grib2 2026-04-27 18:08 960K
20260427T12Z_MSC_CAPS_WindV_IsbL-0500_RLatLon0.03_PT008H.grib2 2026-04-27 18:08 1.0M
20260427T12Z_MSC_CAPS_WindV_IsbL-0550_RLatLon0.03_PT008H.grib2 2026-04-27 18:08 1.0M
20260427T12Z_MSC_CAPS_WindV_IsbL-0600_RLatLon0.03_PT008H.grib2 2026-04-27 18:08 1.0M
20260427T12Z_MSC_CAPS_WindV_IsbL-0650_RLatLon0.03_PT008H.grib2 2026-04-27 18:08 1.0M
20260427T12Z_MSC_CAPS_WindV_IsbL-0700_RLatLon0.03_PT008H.grib2 2026-04-27 18:08 1.1M
20260427T12Z_MSC_CAPS_WindV_IsbL-0750_RLatLon0.03_PT008H.grib2 2026-04-27 18:08 1.1M
20260427T12Z_MSC_CAPS_WindV_IsbL-0800_RLatLon0.03_PT008H.grib2 2026-04-27 18:08 1.1M
20260427T12Z_MSC_CAPS_WindV_IsbL-0850_RLatLon0.03_PT008H.grib2 2026-04-27 18:08 1.2M
20260427T12Z_MSC_CAPS_WindV_IsbL-0875_RLatLon0.03_PT008H.grib2 2026-04-27 18:08 1.3M
20260427T12Z_MSC_CAPS_WindV_IsbL-0900_RLatLon0.03_PT008H.grib2 2026-04-27 18:08 1.3M
20260427T12Z_MSC_CAPS_WindV_IsbL-0925_RLatLon0.03_PT008H.grib2 2026-04-27 18:08 1.4M
20260427T12Z_MSC_CAPS_WindV_IsbL-0950_RLatLon0.03_PT008H.grib2 2026-04-27 18:08 1.4M
20260427T12Z_MSC_CAPS_WindV_IsbL-0970_RLatLon0.03_PT008H.grib2 2026-04-27 18:08 1.5M
20260427T12Z_MSC_CAPS_WindV_IsbL-0985_RLatLon0.03_PT008H.grib2 2026-04-27 18:08 1.4M
20260427T12Z_MSC_CAPS_WindV_IsbL-1000_RLatLon0.03_PT008H.grib2 2026-04-27 18:08 1.4M
20260427T12Z_MSC_CAPS_WindV_IsbL-1015_RLatLon0.03_PT008H.grib2 2026-04-27 18:08 1.5M